ファジーカス彗星

C/2024 X1 ( Fazekas )

English version
Home page
Updated on March 11, 2025

---------------------------------------------------------------------

・ プロフィール

発見日 2024年12月11日
発見光度 19.3等
発見者 Jacqueline B. Fazekas (Mt. Lemmon Survey)

・ 写真集

・ 軌道要素

Epoch 2025 May 5.0 TT = JDT 2460800.5
T 2025 Aug. 3.58498 TT                                  Pike
q   3.8165453            (2000.0)            P               Q
n   0.03371435     Peri.  124.31274     -0.44501379     -0.89538900
a   9.4898536      Node   352.06516     +0.78022156     -0.37914439
e   0.5978289      Incl.    6.46059     +0.43956462     -0.23351247
P  29.2
From 89 observations 2024 Sept. 5-2025 Feb. 3, mean residual 0".5.

・ 光度変化

        m1 = 11.0 + 5 logΔ + 10.0 log r

---------------------------------------------------------------------

軌道要素はM.P.E.C. 2025-C143に掲載されたものです。
光度グラフはComet for Windowsで作成したものです。

---------------------------------------------------------------------

Copyright(C) Seiichi Yoshida (comet@aerith.net). All rights reserved.